Wind_Speed
12 12 12 12 12 12 12 11 11 10 10 10 8 7 7 6 7 7 7 7 9 10 12 13 13 14 14 14 14 14 14 14 13 14 15 17 17 16 12 7 7 7 8 10 13 15 15 15 14 14 15 13 10 9 8 6 5 5 5 5 5 6 6 7 7 5 8 10 12 15 17 17 17 17 17 16 15 14 15 15 14 14 12 11 13 14 17 18
11 11 12 12 12 12 12 11 11 10 10 10 10 9 8 8 8 7 7 6 7 9 10 12 13 13 13 13 13 14 15 14 14 14 15 17 17 16 12 8 8 7 6 8 11 13 13 13 13 14 15 13 11 9 8 7 6 6 5 4 6 8 7 7 7 6 9 9 12 16 17 17 15 17 17 15 15 14 13 14 14 14 12 12 14 16 18 18
11 11 11 11 11 12 12 11 11 10 10 10 10 10 9 9 9 9 8 7 6 7 9 11 12 13 13 12 13 13 15 15 15 15 15 17 17 17 14 11 10 8 7 8 12 13 14 14 14 15 16 13 12 11 9 8 6 6 7 4 6 9 7 7 8 8 8 9 13 16 17 16 15 16 16 14 14 13 11 11 13 15 13 12 14 16 18 18
11 11 10 10 11 11 11 11 11 10 10 10 10 10 10 10 10 10 9 8 7 7 7 9 11 12 12 12 11 12 14 14 16 16 16 16 17 17 15 13 12 10 10 12 15 16 16 17 16 16 16 13 14 13 10 9 7 6 6 4 6 9 7 6 8 9 9 11 14 16 17 17 16 15 15 14 14 12 10 10 12 14 13 10 13 17 17 17
11 11 11 10 10 10 10 10 11 10 10 11 10 10 10 10 11 11 10 9 8 8 8 8 10 12 12 12 10 11 11 10 14 17 16 17 17 17 17 15 14 12 11 13 16 18 18 18 19 19 17 13 15 15 12 12 10 7 5 4 5 7 7 6 7 7 9 12 14 15 16 16 17 16 15 14 12 10 11 12 13 14 13 8 10 16 17 15
12 12 11 11 10 10 10 10 10 10 10 10 11 10 10 10 11 11 11 10 9 9 9 8 9 11 12 12 10 10 11 9 13 18 17 17 17 18 18 17 16 14 13 13 16 19 19 19 20 21 18 14 16 14 11 14 13 8 3 3 4 5 5 5 5 5 8 11 13 15 15 15 17 16 15 14 12 12 12 14 14 15 15 9 10 15 15 14
13 13 12 12 11 11 10 10 10 9 10 10 11 11 10 10 11 12 12 11 10 10 10 10 9 10 11 12 11 10 13 13 13 17 18 18 18 19 20 19 18 16 14 12 14 18 20 20 19 21 20 16 16 12 11 15 15 9 4 2 3 5 5 5 4 5 7 9 11 14 14 13 14 15 16 14 12 13 12 15 15 15 16 11 11 15 14 13
14 14 14 13 12 12 11 11 10 9 9 10 10 11 11 11 11 12 12 11 11 10 10 11 10 10 10 12 12 10 12 15 14 16 18 18 19 20 20 20 19 16 14 11 12 16 19 20 18 19 17 14 15 13 14 15 11 9 5 2 2 4 4 4 3 4 7 9 9 12 13 13 13 14 15 13 12 14 13 16 16 14 15 13 13 15 14 13
15 15 15 15 14 13 13 12 11 10 9 10 10 11 11 11 11 11 12 12 12 11 11 11 10 11 10 11 12 11 12 15 14 15 18 19 20 21 21 20 18 17 15 12 12 16 19 20 18 17 15 13 15 15 16 14 7 8 6 5 2 2 1 3 2 4 7 9 9 9 12 14 14 13 13 14 13 14 14 16 17 14 14 14 15 16 14 13
16 16 16 16 15 15 14 13 13 12 10 9 10 12 12 12 11 12 12 12 12 12 11 11 11 11 10 12 11 10 13 15 15 15 17 18 20 21 21 20 18 17 15 13 13 15 19 19 18 18 17 16 16 16 17 13 8 11 8 5 4 2 2 2 2 5 6 8 10 8 10 15 16 13 12 15 15 14 15 16 18 15 13 14 16 17 15 13
16 16 16 16 16 15 15 14 14 13 11 10 10 11 12 12 12 12 12 12 13 12 12 11 10 11 11 12 12 11 14 15 15 16 17 18 20 21 21 20 19 18 16 14 12 15 19 19 19 17 14 16 17 16 17 15 11 13 9 3 4 4 3 1 2 4 5 6 8 7 8 13 16 14 12 15 16 15 15 16 17 16 13 13 16 18 17 15
16 16 16 16 16 16 15 15 14 14 12 11 10 11 12 12 12 12 12 12 12 12 12 11 10 11 11 12 15 15 15 15 16 18 18 18 19 21 22 21 21 19 17 14 13 16 19 19 20 17 14 16 16 14 16 18 14 11 9 3 5 4 2 2 4 5 6 5 5 6 6 11 14 13 12 16 17 15 16 16 15 16 15 14 16 18 18 17
16 16 16 16 16 16 16 15 15 14 13 11 11 11 11 11 12 12 12 12 12 12 11 10 10 11 12 13 16 16 15 15 17 18 17 18 18 19 21 22 23 22 20 18 15 17 20 20 21 20 19 16 12 14 15 18 15 8 7 4 6 5 1 2 5 6 7 6 5 4 4 9 13 13 12 16 17 16 16 16 16 16 16 16 17 18 18 18
17 17 16 16 16 15 16 15 15 15 13 12 11 11 11 11 11 11 11 11 11 11 11 11 11 12 13 14 15 15 15 16 17 18 17 17 17 16 19 21 23 24 23 21 18 20 21 20 21 21 22 17 15 18 13 13 14 8 6 6 6 7 3 3 5 7 8 7 7 5 3 8 12 12 12 15 17 16 16 16 16 16 17 17 18 19 19 19
18 18 17 16 16 15 15 15 15 15 14 12 11 11 11 10 10 11 10 10 11 11 11 11 12 13 13 13 13 15 15 16 17 18 18 18 17 15 16 18 21 23 23 22 20 23 22 20 21 20 19 19 21 18 9 10 14 10 9 9 9 7 3 3 5 9 8 7 8 6 5 8 11 12 12 14 16 17 16 15 16 16 16 18 19 20 20 19
19 19 18 17 17 16 15 15 15 15 14 12 11 11 11 10 10 10 9 9 9 10 10 12 14 14 13 13 15 16 16 17 18 20 20 20 19 17 16 17 20 22 23 22 20 24 24 21 21 19 16 18 19 14 9 12 14 13 12 10 11 8 5 6 6 9 9 6 8 7 6 7 9 12 12 14 16 17 17 16 16 15 16 18 19 20 21 21
20 20 20 19 18 17 16 15 15 15 14 12 11 10 10 10 10 9 8 8 8 10 11 13 15 15 14 14 15 17 17 18 18 19 20 21 20 18 16 16 18 20 22 22 21 23 25 23 23 23 20 16 14 13 13 16 17 16 13 8 8 7 7 8 6 7 8 7 7 6 6 8 7 8 10 13 14 16 17 17 17 16 16 19 20 20 21 22
20 21 22 21 20 18 17 15 15 15 13 11 10 9 9 10 10 9 7 7 8 9 10 14 17 14 12 14 16 18 19 17 17 18 19 20 20 19 18 17 17 18 21 21 21 23 24 23 21 19 18 16 13 15 16 16 16 18 16 10 8 8 5 4 5 6 7 6 7 6 5 6 5 5 6 10 13 14 16 16 17 17 17 19 21 21 21 21
19 20 21 21 21 20 17 16 15 14 12 10 10 9 8 9 10 10 8 8 9 10 9 14 19 13 9 16 20 19 18 17 17 18 18 19 20 19 19 19 18 17 20 21 22 24 23 21 20 17 18 19 16 16 14 11 11 13 14 10 8 9 6 4 5 6 7 6 7 5 5 2 2 4 5 7 11 12 14 16 17 18 18 19 22 23 22 21
18 18 19 19 20 19 17 14 14 14 11 9 9 9 8 9 8 8 10 9 11 14 13 17 22 15 10 17 21 18 17 16 17 17 16 17 18 18 18 18 18 17 18 20 21 25 23 19 21 19 18 18 16 15 12 10 10 9 10 9 7 8 7 6 5 6 7 6 6 3 3 1 2 5 6 6 8 11 12 15 17 18 19 20 22 24 23 22
19 18 19 19 19 19 17 14 13 12 9 7 8 7 8 8 6 7 9 8 11 16 16 20 24 17 15 21 21 18 17 16 16 16 15 16 16 16 17 17 18 18 17 17 19 24 23 19 20 18 14 15 15 14 12 10 10 9 9 9 8 8 7 7 5 6 7 5 4 4 4 6 5 5 8 7 7 8 9 12 14 16 18 20 21 23 24 23
20 19 19 18 18 18 17 15 13 11 8 7 7 7 8 8 8 10 9 7 10 15 17 20 22 17 19 22 20 19 18 16 16 17 16 16 15 12 14 17 17 17 17 17 18 22 22 18 18 17 14 14 14 14 14 10 9 10 10 9 9 9 7 7 5 5 7 5 3 3 4 7 6 5 4 5 8 9 8 9 11 13 15 19 21 22 24 25
20 19 18 17 17 17 15 15 12 9 7 6 7 7 8 8 9 10 9 7 9 14 17 20 21 17 20 22 19 19 17 14 15 17 17 16 14 12 13 16 16 15 18 20 19 20 21 17 17 17 16 15 14 15 15 12 11 11 10 12 13 10 8 7 6 6 5 4 3 2 3 6 6 4 2 5 10 11 10 10 10 11 13 15 17 20 22 24
19 19 19 18 16 14 13 12 9 8 6 6 7 7 7 8 9 8 8 8 7 13 17 21 21 19 22 22 20 19 15 13 13 15 17 16 14 14 14 15 15 15 18 20 18 18 16 13 16 18 17 16 14 14 15 14 14 13 11 12 12 9 7 5 5 5 5 3 3 2 4 7 7 5 4 7 11 13 13 13 12 12 13 14 15 19 21 23
19 19 19 18 15 11 10 9 7 6 5 6 7 7 7 7 7 6 8 7 6 12 18 21 21 20 22 21 21 19 14 14 15 14 15 16 15 13 13 14 14 14 17 19 18 16 13 12 16 17 16 15 13 14 15 15 15 15 14 14 11 7 7 5 2 3 6 6 5 4 5 7 7 5 5 7 10 13 14 14 14 12 13 14 15 19 21 23
20 20 19 18 14 8 6 5 4 3 4 6 6 6 6 5 5 6 9 7 7 12 16 19 18 17 19 19 20 19 13 13 15 14 16 19 17 13 12 15 14 12 16 18 16 14 12 11 15 16 15 14 13 13 14 15 15 14 13 15 14 9 8 7 5 5 6 6 5 4 6 6 10 5 2 5 7 9 10 11 12 12 11 12 13 15 20 23
20 19 19 17 13 8 5 3 2 2 4 6 5 6 6 4 5 9 9 6 9 13 14 16 16 15 17 19 19 15 11 14 16 14 16 19 17 14 13 14 13 12 15 17 14 14 13 11 14 15 14 14 14 14 13 15 15 10 8 11 13 13 12 9 8 8 6 3 4 5 7 6 9 7 2 4 6 5 5 6 9 11 11 11 12 13 17 21
18 18 18 16 13 8 4 2 1 2 5 5 5 6 5 4 8 12 6 4 10 12 13 16 16 15 17 19 18 11 9 13 15 14 15 16 16 14 11 11 12 13 16 17 13 13 12 12 13 14 14 13 14 13 12 15 16 9 4 7 10 11 12 11 10 9 6 5 8 9 8 6 7 8 6 8 8 6 4 1 5 9 10 11 12 13 15 18
17 17 16 15 12 8 4 2 0 2 4 4 5 6 5 5 11 9 5 2 10 11 12 14 14 15 17 18 16 11 12 14 12 14 15 14 16 14 10 10 11 12 17 18 11 9 13 14 14 13 12 11 11 12 11 14 15 9 4 6 8 9 11 11 10 9 7 8 10 10 11 8 6 8 6 7 7 4 3 1 2 7 9 10 11 12 14 16
15 15 14 14 11 8 6 3 1 1 3 3 3 4 6 9 10 7 5 5 9 11 13 11 11 15 16 16 14 14 17 14 10 15 15 13 15 14 11 11 12 11 15 16 9 7 13 16 14 15 14 13 12 12 13 14 12 8 6 8 8 9 10 11 10 9 7 9 11 9 10 10 3 6 6 6 5 4 2 1 2 4 7 10 12 12 14 15
13 13 13 12 11 8 6 3 3 1 2 3 5 8 11 9 5 6 4 10 9 11 13 10 11 15 16 16 14 16 18 15 14 14 12 12 13 12 11 11 13 13 14 15 10 6 9 10 11 14 15 14 12 11 12 14 13 10 10 11 11 11 11 11 11 9 7 8 10 10 8 7 3 6 6 5 5 5 4 1 2 5 7 11 12 12 13 13
12 12 12 12 10 8 6 3 3 2 4 6 11 13 10 6 3 1 7 10 8 9 11 11 14 15 16 15 15 16 15 16 18 14 11 12 12 13 13 12 15 14 14 17 13 10 10 8 9 12 13 14 13 11 11 13 14 13 13 15 14 11 11 11 10 10 9 7 7 10 10 5 7 9 5 5 6 6 6 3 3 7 8 9 11 12 13 13
12 12 12 11 11 9 7 4 3 6 8 9 12 10 4 5 3 7 7 5 7 11 11 13 15 16 16 16 16 16 14 17 16 12 12 11 12 15 14 15 18 11 10 17 16 14 12 7 8 10 10 16 16 13 12 14 17 17 16 18 15 10 9 9 8 9 11 9 6 8 10 8 11 9 5 5 6 7 7 6 1 6 8 9 10 12 13 13
12 12 11 12 11 10 8 6 7 8 8 9 9 5 2 3 6 7 6 7 9 13 14 15 16 16 15 15 16 15 13 15 13 9 11 10 10 11 9 15 18 7 7 15 14 14 11 7 11 11 8 17 21 16 11 12 17 18 16 17 16 11 9 9 9 10 12 10 9 10 9 9 12 9 7 6 6 7 8 7 3 3 6 10 11 12 14 14
12 11 12 13 13 11 9 7 7 7 8 9 7 3 4 6 7 5 6 10 11 12 16 17 16 15 14 14 16 15 12 14 13 10 11 10 9 9 9 15 19 10 8 12 10 10 8 6 11 12 9 14 20 18 14 12 13 15 15 14 14 12 9 8 8 11 14 12 11 11 5 7 13 11 8 7 7 7 6 5 2 2 3 8 10 12 15 16
11 11 12 12 13 12 11 9 8 8 10 9 5 6 8 8 6 6 7 11 12 13 16 16 14 13 14 13 12 13 14 15 15 12 12 11 9 11 13 15 18 15 10 8 9 10 7 7 10 10 8 11 14 16 18 15 9 10 16 15 11 9 8 5 4 9 13 9 11 13 11 15 16 11 7 6 7 4 1 2 1 3 2 4 8 12 15 17
10 10 11 11 11 11 11 11 10 9 7 4 6 11 10 8 9 10 10 13 15 17 14 13 13 11 13 14 11 11 14 14 13 11 11 10 8 11 15 13 15 17 13 8 8 9 7 8 10 8 6 9 10 12 16 16 9 8 13 15 12 10 10 9 5 8 11 7 10 15 14 16 15 9 6 4 6 3 3 3 2 2 1 2 4 9 13 16
8 9 9 9 9 10 11 11 11 10 6 5 10 14 11 8 11 12 11 14 18 15 7 10 14 11 11 13 13 13 11 10 10 10 11 10 8 11 15 13 12 13 14 10 7 8 8 8 9 9 8 9 10 9 9 12 13 10 6 9 12 10 10 12 9 7 10 8 8 13 14 11 8 5 4 1 4 4 1 4 5 4 3 2 2 4 7 11
6 7 6 6 7 9 10 11 12 8 6 7 10 12 11 10 11 11 11 13 16 10 4 9 14 12 11 12 13 14 10 9 10 10 9 9 8 10 13 14 12 11 12 12 8 10 10 6 7 9 9 9 9 8 5 4 10 13 8 7 11 9 7 12 12 9 10 9 7 10 12 8 4 3 3 1 2 5 4 1 4 5 4 3 3 3 4 5
6 4 2 2 6 7 8 11 10 5 7 10 11 12 12 12 12 11 10 11 12 7 6 11 12 12 14 13 13 13 11 10 11 9 8 10 9 8 10 13 13 13 12 11 11 12 10 6 6 9 9 8 7 8 8 6 6 8 8 9 11 9 7 8 10 9 8 7 7 9 10 8 5 1 1 1 2 4 5 4 1 5 5 3 2 3 4 4
6 3 2 1 4 5 7 8 5 7 9 11 12 13 13 13 13 12 10 10 10 8 10 13 12 13 15 13 12 12 11 11 10 7 9 12 10 7 9 11 12 12 11 8 9 11 8 4 5 9 8 6 7 9 12 12 11 9 5 6 9 9 10 9 10 12 9 7 5 7 8 9 5 1 3 4 2 2 4 6 2 4 4 3 3 3 3 4
5 1 2 0 1 4 7 6 5 9 11 10 11 11 11 11 11 11 10 10 10 9 11 12 13 15 14 12 11 11 12 11 9 8 9 11 11 10 11 11 10 10 9 6 7 9 8 6 5 7 7 6 8 10 9 11 13 10 6 8 10 7 9 10 7 10 14 9 6 5 7 9 4 2 4 5 4 2 2 5 4 2 4 3 3 3 4 3
3 2 2 1 1 4 7 6 6 8 9 9 9 8 7 8 8 9 9 9 10 10 10 11 12 13 13 12 12 12 12 11 9 9 10 11 11 11 12 11 10 11 9 6 5 6 7 6 6 7 6 5 5 5 6 7 8 5 4 9 11 8 11 13 6 3 11 11 8 8 6 9 5 4 6 6 5 3 2 4 4 4 4 5 4 3 4 4
3 1 1 2 1 4 5 5 6 7 6 6 6 5 5 5 6 7 7 7 8 8 9 11 11 10 11 12 12 12 11 9 9 10 10 12 12 11 11 10 11 11 8 6 6 6 5 5 6 7 6 6 5 4 6 6 5 3 2 7 11 10 15 17 11 7 9 7 8 10 6 12 9 5 8 7 6 6 4 4 2 4 5 6 5 4 4 5
4 3 3 3 2 5 7 7 8 7 7 7 6 4 4 3 4 6 6 7 8 8 8 10 11 11 12 12 11 12 9 7 10 12 11 12 12 11 11 10 10 10 8 6 6 5 4 3 4 5 4 4 4 4 6 7 6 4 2 4 7 9 12 12 10 11 10 6 4 5 7 16 12 7 8 7 7 7 6 5 3 2 5 6 7 6 6 5
3 2 2 3 4 5 8 9 9 8 7 7 5 5 5 3 4 5 6 7 8 8 8 10 11 10 10 10 9 9 9 8 9 11 12 13 12 11 11 10 9 8 6 5 3 2 2 3 5 6 5 2 3 2 7 8 5 4 3 3 4 7 9 7 8 10 10 7 5 6 14 19 13 8 8 7 7 7 6 5 4 3 4 6 7 8 7 7
2 2 2 3 5 5 5 7 8 7 6 5 5 6 6 5 4 4 6 7 8 8 8 9 11 10 9 10 8 8 9 9 9 11 13 13 12 11 10 8 7 6 5 5 4 3 1 3 6 6 8 7 4 4 8 7 6 5 4 3 5 7 7 4 5 8 8 6 7 12 16 17 13 9 6 6 7 6 6 5 4 2 3 5 6 7 7 7
1 2 1 2 4 4 3 3 5 5 5 6 6 7 7 5 6 6 6 6 7 8 7 7 9 10 10 10 9 8 9 8 9 12 12 11 10 8 6 7 7 7 6 5 6 4 4 3 4 4 6 9 9 8 8 8 9 8 6 5 5 6 5 4 5 9 8 5 8 15 16 13 11 9 6 6 6 5 4 3 3 2 3 4 4 5 5 5
1 2 1 1 2 3 3 3 4 4 5 6 6 7 7 6 5 6 7 6 5 7 7 6 7 8 10 10 8 9 9 7 8 12 11 10 9 6 3 4 4 5 5 4 5 6 5 4 5 5 4 5 7 7 7 7 7 7 7 7 6 5 5 6 6 9 10 6 8 14 15 13 10 7 6 8 8 5 4 2 2 1 2 2 3 3 3 4
1 1 1 2 2 3 4 5 6 6 5 5 5 4 6 5 4 5 7 6 4 5 6 7 7 7 7 7 8 10 10 8 8 11 10 7 7 6 5 4 3 3 4 4 5 6 5 4 6 6 4 3 4 5 4 4 5 5 6 7 7 5 6 7 7 8 8 6 9 11 11 10 9 7 7 10 9 7 6 4 2 2 1 2 3 3 4 4
0 1 1 3 3 5 6 7 8 7 5 4 4 3 4 5 5 6 7 6 5 5 6 6 6 7 7 7 9 11 10 9 9 11 10 9 7 7 7 7 6 4 4 5 5 5 4 4 6 6 5 4 4 3 2 3 5 5 6 7 8 7 6 7 8 9 7 7 9 9 8 8 8 7 7 8 7 8 8 7 6 5 4 4 4 3 4 5
2 1 2 4 5 5 7 8 9 6 3 3 3 2 2 3 4 6 6 6 6 7 7 8 8 8 8 8 10 11 10 10 9 10 10 9 9 8 7 8 8 6 4 4 4 4 5 5 5 6 5 4 4 4 2 4 5 6 9 10 8 8 8 7 8 12 12 10 8 8 10 11 10 6 5 4 4 7 11 10 8 8 7 6 7 6 6 5
Wind_Direction
318 315 313 310 309 306 305 305 304 301 297 293 286 276 270 271 275 277 275 269 258 246 239 234 233 230 228 224 218 213 213 211 208 206 206 208 206 211 216 203 210 223 211 202 201 200 199 196 193 195 190 185 181 164 169 177 153 133 100 76 65 37 21 34 26 53 121 145 155 159 157 155 154 150 150 152 154 160 170 172 168 170 168 167 167 168 176 175
323 319 315 312 310 307 306 305 306 303 296 293 288 278 268 265 267 270 271 269 262 252 243 237 234 231 228 225 221 216 213 211 210 206 206 209 206 209 210 196 206 221 210 195 193 193 195 194 191 196 190 182 181 167 168 172 150 137 113 66 70 60 33 38 44 81 119 147 157 158 156 153 153 152 150 154 159 161 172 174 164 167 168 168 170 168 177 178
327 322 318 315 311 308 307 306 306 302 297 293 288 283 273 266 263 264 264 262 259 254 245 239 236 233 228 224 221 218 215 213 212 207 206 209 206 207 206 195 202 209 195 183 182 182 185 186 188 195 188 178 180 173 170 160 140 136 117 85 84 73 45 48 66 91 115 141 151 153 155 154 153 153 154 158 162 163 171 173 163 162 162 168 174 169 174 177
328 325 321 318 314 310 307 306 305 301 297 293 288 285 277 270 265 262 260 257 254 251 246 238 235 235 231 223 218 217 216 217 218 209 205 208 206 206 204 197 202 204 193 183 179 179 182 182 180 188 186 179 180 176 175 160 146 148 119 89 94 78 52 55 77 97 114 134 146 150 154 156 155 156 159 157 159 165 167 164 160 159 154 155 168 168 171 176
333 328 324 321 317 313 309 306 304 299 296 292 289 284 278 272 266 263 260 255 249 247 245 237 232 232 233 226 215 213 207 214 222 210 204 206 204 204 202 199 201 203 198 190 185 180 181 182 178 182 181 182 183 178 179 164 145 139 123 108 92 65 50 58 82 110 127 137 146 151 156 158 159 162 157 150 155 168 168 162 160 161 154 134 154 167 169 172
337 332 329 325 321 317 313 309 304 299 294 291 288 284 278 271 265 263 261 257 250 244 242 238 232 229 231 228 216 204 192 201 216 207 204 204 201 202 200 200 201 202 199 195 192 183 181 184 182 180 176 182 185 179 183 166 146 136 131 110 79 56 55 53 72 121 139 145 151 153 159 164 163 164 158 154 162 167 166 164 163 166 165 142 144 165 168 167
338 335 332 328 325 322 318 314 307 301 295 290 288 284 279 271 264 261 259 258 252 245 241 237 234 229 228 227 219 206 200 209 213 204 203 201 199 200 198 201 201 202 202 199 197 188 184 184 185 184 178 185 186 177 182 169 153 150 153 139 96 73 63 48 61 111 139 154 156 153 158 167 166 165 162 158 159 160 162 168 167 168 171 153 145 164 168 165
340 337 335 332 330 326 323 319 313 307 300 292 288 284 280 273 266 260 256 255 252 246 243 237 235 231 226 224 218 212 214 217 214 205 202 199 197 196 198 201 199 202 203 199 201 193 188 184 187 188 180 188 191 185 180 167 160 158 160 194 116 57 39 36 54 102 130 151 154 155 162 168 167 166 165 160 156 158 160 169 169 165 171 159 148 163 168 166
340 337 335 333 331 329 326 323 317 312 305 295 290 284 279 274 269 263 255 253 250 246 244 239 234 228 224 222 213 215 222 216 214 210 202 199 196 193 197 199 199 203 201 198 198 194 191 187 186 185 180 191 195 191 176 158 177 192 177 185 142 23 335 44 58 120 129 150 153 160 169 168 166 165 167 164 158 159 161 168 169 162 170 164 153 161 166 166
341 338 336 333 331 329 326 323 319 314 309 300 291 284 280 274 268 264 257 252 248 245 242 240 235 225 221 219 205 210 223 212 210 210 201 199 194 191 194 195 197 200 201 201 194 192 192 188 188 186 184 192 192 191 177 160 198 205 174 164 169 142 138 73 80 145 140 156 157 157 172 170 167 165 167 168 160 160 163 169 173 167 166 166 159 161 166 168
343 341 338 335 332 328 325 322 318 314 311 304 293 285 279 275 269 263 258 252 248 245 240 239 235 222 217 212 196 203 218 209 207 208 201 198 192 189 192 191 193 197 201 200 193 192 189 190 190 181 185 194 189 191 189 182 196 194 162 140 198 153 115 133 137 158 155 154 156 152 168 171 168 167 170 170 163 162 166 168 175 176 169 165 165 165 167 170
345 342 339 337 334 331 327 323 319 314 310 306 298 287 279 275 270 262 257 252 248 243 239 237 231 218 213 207 201 206 212 205 206 207 200 197 191 189 190 189 189 192 196 195 194 190 185 191 184 170 184 192 189 197 201 196 192 185 159 143 219 175 71 202 178 175 165 157 165 148 169 182 173 171 174 173 167 165 168 168 174 179 175 168 170 172 170 171
342 340 339 337 335 333 329 325 321 316 312 309 300 290 282 275 270 264 258 251 247 242 236 231 222 212 206 206 206 209 209 203 204 206 201 195 190 190 191 190 189 189 190 189 187 186 184 188 180 177 184 176 183 203 204 202 194 186 177 173 214 198 66 211 189 185 168 168 183 150 176 198 186 180 177 175 173 171 171 172 175 177 178 174 172 176 175 172
335 335 334 334 334 333 330 327 323 318 315 311 301 292 286 277 270 264 257 251 246 239 232 224 211 202 203 206 205 205 206 202 201 203 201 194 189 192 194 193 193 191 191 188 182 181 182 185 184 187 184 173 188 198 195 204 195 187 196 193 200 194 194 228 202 179 171 176 170 144 162 183 188 193 186 179 179 178 174 176 181 178 179 178 174 178 179 174
331 330 330 331 330 331 330 327 323 320 318 315 305 294 288 281 272 264 257 251 243 233 226 213 200 197 199 202 202 204 204 198 196 199 199 194 188 190 195 195 196 196 194 191 184 178 179 184 186 186 189 190 191 188 187 200 195 190 198 195 193 196 204 229 201 170 175 183 156 148 161 161 184 199 193 186 185 184 180 181 186 181 180 181 177 180 181 176
330 328 328 329 327 328 329 326 323 319 319 317 308 298 290 284 275 267 259 249 238 227 217 202 194 190 185 194 201 200 197 194 193 196 197 195 189 187 192 195 195 198 197 193 188 181 177 180 184 184 191 196 190 187 195 198 197 197 200 197 191 198 194 188 186 168 176 185 159 158 152 141 180 198 194 191 187 186 184 185 188 182 182 182 179 182 183 179
327 324 322 323 321 321 323 324 321 317 318 317 311 301 288 282 276 269 260 245 232 218 205 193 186 181 184 191 195 195 196 195 192 194 198 199 194 186 186 192 196 198 197 193 191 186 180 179 185 188 186 187 191 197 201 199 196 193 197 199 184 188 189 174 169 172 175 172 162 165 151 137 151 174 189 193 187 185 185 187 187 182 183 184 181 184 185 182
321 318 315 316 315 313 315 317 316 315 316 315 311 301 287 280 274 267 257 240 225 206 197 191 179 176 191 186 183 196 198 194 192 192 198 200 197 191 185 188 194 196 195 193 191 187 183 182 184 188 189 190 197 200 201 201 197 194 196 196 179 180 187 154 144 172 172 163 172 174 166 162 143 137 171 189 187 184 184 189 190 184 184 187 185 185 187 185
319 316 314 313 311 309 309 308 307 310 312 310 306 299 285 276 272 267 250 227 207 187 185 191 177 170 194 188 185 195 194 190 190 189 194 198 197 195 190 186 188 193 194 190 190 188 185 181 180 186 197 200 200 199 199 198 196 196 192 186 173 171 166 125 134 169 162 166 189 162 126 147 167 145 147 171 185 186 186 192 193 186 185 189 189 187 188 188
324 320 318 317 314 311 309 304 298 297 303 301 295 292 280 271 274 272 251 222 203 191 185 186 179 169 177 188 186 183 182 183 183 184 188 193 194 196 195 189 183 186 190 190 192 190 183 182 186 190 197 197 197 195 191 189 184 180 180 175 160 157 150 129 140 169 154 165 202 173 126 195 212 176 162 159 179 189 192 193 193 189 187 189 192 191 189 189
329 327 325 323 319 315 312 306 294 288 291 285 281 281 272 260 245 254 250 228 210 198 188 183 180 175 175 183 182 172 170 172 176 181 182 185 187 188 192 190 183 181 184 189 193 189 184 191 196 193 189 187 189 191 187 183 181 184 188 183 176 169 146 125 135 162 151 156 189 178 184 213 229 197 178 167 161 176 191 195 196 194 191 191 193 195 193 191
332 331 329 326 321 318 313 305 292 285 282 271 269 267 265 255 238 243 243 232 217 201 192 183 179 182 179 177 177 169 163 167 178 182 182 184 178 181 192 184 180 181 180 181 185 185 188 198 199 189 183 181 182 188 187 180 183 193 194 192 188 174 152 138 137 150 147 152 176 166 174 201 221 199 183 187 167 169 185 193 199 197 196 194 193 197 196 195
332 331 330 327 324 322 315 304 291 284 279 257 253 254 257 253 243 243 230 222 220 204 193 180 174 178 174 171 171 165 160 169 184 187 187 183 173 181 190 177 174 183 183 182 182 184 191 200 195 186 186 185 187 192 192 191 195 196 197 204 196 179 176 165 148 159 160 161 175 177 173 183 198 189 218 230 194 187 189 184 191 193 192 191 191 198 201 200
334 333 331 329 326 323 316 307 293 286 272 240 240 241 248 249 240 239 216 200 206 199 188 177 173 174 173 171 165 159 163 174 182 192 189 179 178 185 179 171 177 186 188 188 188 190 194 197 189 188 193 191 195 200 199 203 207 206 205 208 198 187 199 178 132 160 183 196 207 235 207 177 181 191 205 227 209 202 198 188 188 187 186 188 190 196 201 204
338 336 336 333 332 326 317 309 295 286 255 228 234 230 242 249 237 223 192 179 190 188 179 172 171 174 174 172 167 163 169 177 181 191 184 174 180 184 175 175 179 188 192 187 190 195 196 195 187 187 193 191 196 206 207 208 210 215 214 211 208 196 201 199 163 185 202 211 208 228 223 162 142 171 190 215 215 210 208 199 194 188 185 190 192 193 196 203
342 341 342 340 339 333 321 314 298 285 232 221 225 225 237 239 218 185 164 163 171 167 169 169 169 176 175 171 173 169 167 179 182 183 179 176 179 178 180 180 173 184 190 183 191 200 196 197 190 188 191 191 200 209 210 210 210 220 216 209 215 213 212 214 214 223 217 207 185 204 229 156 117 113 187 207 199 204 212 209 204 200 193 192 191 194 196 200
346 347 347 345 345 342 337 327 295 241 210 213 216 222 229 220 174 152 153 176 166 154 163 170 170 178 176 170 171 170 177 181 174 175 179 178 176 171 174 179 174 177 178 176 191 200 190 186 183 186 191 195 205 209 210 208 208 218 207 199 213 217 220 219 215 228 233 241 210 198 229 191 119 83 55 158 148 153 188 213 219 209 197 193 191 194 198 200
349 350 348 348 349 348 349 332 282 194 197 206 214 215 216 202 158 151 175 196 149 149 165 170 172 175 171 167 166 173 184 168 164 174 175 171 171 164 167 182 184 180 175 174 185 191 186 183 181 183 190 200 209 210 209 206 205 214 198 190 206 212 218 216 217 226 229 249 228 194 208 205 111 82 78 104 109 108 120 198 240 223 209 201 196 193 196 198
352 350 347 350 352 351 353 340 163 183 205 203 202 204 203 180 151 157 229 178 131 149 164 165 172 170 164 165 167 169 162 154 166 174 165 169 172 165 173 183 177 178 180 183 190 190 189 191 186 183 193 202 202 202 202 199 205 220 206 182 192 199 207 208 214 223 219 235 229 195 199 201 101 77 79 84 83 80 80 62 240 232 227 218 206 194 192 194
356 352 350 354 354 355 358 353 50 172 208 189 183 177 160 151 153 186 227 132 126 152 158 156 169 167 160 160 161 160 159 157 166 164 160 169 169 166 171 163 158 165 176 188 199 191 194 201 199 197 205 206 202 208 205 195 200 214 194 176 181 185 193 199 207 216 217 227 224 198 197 211 165 72 63 62 53 35 28 20 210 214 221 222 213 200 196 195
0 358 358 359 359 360 1 11 26 40 151 143 139 135 130 137 182 238 171 123 123 147 155 154 160 163 160 158 154 158 166 165 156 151 154 159 156 160 163 152 156 160 166 181 185 167 182 198 203 207 211 206 205 214 208 197 197 200 190 181 176 172 180 192 197 207 225 224 209 186 185 214 181 97 71 44 33 25 22 346 209 194 205 217 213 206 207 204
10 7 6 6 7 4 4 18 28 75 112 122 128 126 129 154 187 116 119 128 130 138 151 153 152 154 154 149 143 149 161 161 155 148 142 146 149 160 166 162 163 164 167 175 172 164 162 164 185 199 204 196 188 191 193 191 194 193 189 186 181 172 178 192 192 202 221 215 185 179 186 173 103 100 85 36 32 28 21 14 188 184 190 206 210 207 207 209
18 14 16 18 17 14 15 32 74 98 107 119 121 119 155 199 139 91 96 116 136 144 148 145 147 150 149 143 137 144 152 153 157 156 145 143 152 165 170 168 167 165 170 169 165 166 161 155 174 178 193 193 182 182 187 187 192 194 190 189 190 183 182 193 191 199 214 205 170 175 189 161 119 104 84 57 42 37 30 23 134 181 185 190 203 207 205 208
25 23 30 32 31 30 35 63 90 94 103 111 107 113 186 149 103 88 79 85 123 147 144 137 142 146 149 148 141 142 147 146 149 149 143 136 139 154 163 174 179 170 148 165 167 170 167 163 172 168 178 187 186 190 184 173 186 193 192 197 203 204 200 198 195 198 202 191 168 178 198 176 150 124 89 82 52 44 42 27 39 180 189 188 196 204 204 206
32 34 41 42 42 46 53 72 83 87 103 101 94 114 118 102 91 71 87 104 116 137 138 137 143 143 144 148 146 146 143 138 135 128 135 137 136 149 164 185 194 186 161 174 173 171 161 131 162 175 174 179 188 195 182 164 178 190 194 205 214 214 211 212 205 197 197 187 170 176 168 132 139 124 99 90 55 48 57 38 8 282 210 188 192 200 207 208
38 41 46 45 46 52 57 64 70 87 101 95 92 96 81 80 80 70 113 130 126 135 139 141 148 150 146 141 142 153 151 142 134 122 126 138 147 162 169 184 195 190 186 182 168 176 168 122 152 176 174 179 189 192 189 186 179 183 192 201 214 210 202 222 212 190 202 199 175 169 130 117 132 123 107 95 53 44 141 93 246 268 273 199 192 197 207 213
48 48 48 44 44 52 58 61 61 67 73 77 111 99 78 73 83 90 126 143 138 140 148 153 152 151 152 144 133 142 148 142 134 124 120 124 137 151 153 169 188 191 194 177 162 187 173 127 146 162 160 175 181 181 194 200 185 176 194 199 207 212 209 228 225 185 202 205 176 174 152 145 162 147 116 93 43 27 224 203 199 210 226 224 198 195 204 211
63 57 52 49 46 52 60 55 47 51 59 96 111 98 82 81 86 95 121 141 143 140 147 162 152 143 148 147 140 140 145 144 138 133 123 113 120 137 137 146 164 180 191 180 165 189 176 135 144 165 170 170 169 171 190 208 204 201 204 190 196 208 204 214 224 196 202 209 182 177 164 152 162 137 114 101 30 29 275 221 207 187 168 172 169 182 198 205
80 57 45 50 42 51 67 52 37 51 92 105 101 92 85 85 90 103 118 138 149 144 139 158 152 151 148 140 144 147 145 146 144 139 131 120 127 137 131 134 137 147 172 178 172 181 187 176 149 160 174 165 160 171 168 198 213 213 218 193 195 216 205 202 216 212 209 211 184 179 178 152 100 87 116 142 49 39 22 287 220 210 194 182 168 164 176 197
104 72 349 31 31 35 62 51 40 76 119 111 101 96 93 86 86 98 112 139 152 147 155 158 151 154 153 142 147 153 144 142 143 139 137 129 129 139 136 132 131 131 143 158 164 165 177 197 160 152 169 169 169 188 177 154 170 199 218 208 200 220 226 208 215 222 237 234 195 191 188 151 104 88 182 164 76 49 39 35 272 230 224 222 213 199 187 188
102 85 284 28 30 19 49 56 75 113 114 111 105 100 98 92 85 86 96 127 143 142 155 160 155 156 156 148 153 156 142 134 134 129 131 133 132 140 145 137 134 133 125 129 153 158 163 188 167 152 157 162 178 194 190 184 177 170 185 201 198 212 218 214 211 212 235 265 237 206 172 136 126 157 171 173 156 77 50 44 24 247 245 258 262 263 236 208
90 82 259 147 48 50 69 81 111 108 108 114 110 102 98 94 92 91 93 109 122 129 142 155 161 162 160 156 158 157 143 130 127 125 135 149 155 155 151 143 139 138 125 119 149 157 155 152 136 133 137 159 188 193 192 195 189 181 186 195 198 209 216 225 233 208 213 238 258 223 144 126 149 153 136 158 158 127 53 49 38 303 283 288 297 313 294 254
112 198 239 294 349 76 84 95 101 102 112 113 105 103 99 94 99 100 99 108 115 122 133 144 154 161 164 161 159 161 153 141 137 140 149 160 162 157 152 143 138 139 126 118 138 143 145 144 130 122 127 157 190 199 203 198 181 178 207 197 196 203 208 222 259 221 208 215 224 224 161 129 152 141 116 123 119 106 71 54 26 344 329 315 309 324 325 306
108 139 333 330 356 92 101 114 109 108 110 95 87 94 102 110 115 109 109 122 123 125 138 144 144 152 161 157 156 162 159 146 147 154 160 163 162 162 160 150 143 144 139 137 143 139 139 149 155 158 161 170 188 221 223 206 166 142 185 196 198 202 205 217 232 229 225 216 224 241 185 138 149 133 107 106 102 93 76 67 28 349 347 335 324 317 326 339
71 38 15 14 68 114 135 133 116 112 105 94 89 89 97 125 136 127 125 131 137 139 145 149 146 149 156 152 155 166 165 158 164 164 164 167 169 169 167 163 157 153 154 153 147 145 148 159 188 216 220 186 181 188 179 174 168 165 167 182 198 202 200 209 220 222 226 207 214 252 147 139 146 135 113 103 97 93 81 80 81 16 358 352 344 324 311 325
88 61 34 47 70 109 141 134 116 113 111 101 101 102 104 131 152 152 144 135 143 148 150 156 151 146 151 147 148 163 165 163 165 164 164 168 174 175 173 175 177 176 183 186 186 196 193 206 236 264 277 312 29 105 155 161 165 170 169 169 190 200 193 195 218 219 209 176 132 111 133 143 145 140 131 111 97 92 84 92 101 60 13 5 1 348 333 322
124 136 108 92 93 91 115 125 117 123 129 120 121 116 111 125 136 147 155 149 149 146 148 161 157 147 147 144 143 154 159 158 160 165 169 170 175 182 185 188 195 204 216 231 241 233 171 223 239 243 241 243 261 231 195 182 172 168 175 181 192 198 182 176 212 200 184 182 152 134 141 150 153 152 140 119 106 93 87 101 123 102 37 20 18 14 6 348
193 180 128 105 127 123 124 128 113 119 133 131 128 117 107 119 129 132 144 151 158 153 144 156 165 163 161 156 151 152 151 153 161 167 171 173 173 180 198 213 223 235 240 254 255 219 164 189 210 199 214 223 228 224 204 189 188 189 192 187 186 192 170 160 190 182 176 191 167 153 150 151 161 165 146 142 143 127 112 110 117 105 44 30 31 26 19 9
236 221 179 75 140 153 145 131 112 113 129 128 127 117 108 114 132 142 142 137 156 167 157 161 178 179 177 172 163 157 154 155 170 176 178 181 178 168 175 217 248 253 234 233 233 198 162 171 181 162 169 202 214 212 195 188 194 198 206 202 188 175 166 168 183 184 181 167 145 156 157 154 163 165 160 179 184 177 175 148 97 94 43 23 23 22 10 4
229 234 132 70 77 113 124 133 125 117 119 120 122 121 112 108 116 143 148 131 132 160 158 163 179 181 181 181 170 168 173 173 180 186 182 180 183 174 170 184 206 208 189 177 181 171 162 187 180 158 158 192 208 207 195 192 191 189 209 212 197 184 181 185 188 188 184 162 147 161 167 173 190 191 190 203 207 203 206 206 215 232 268 321 341 7 5 359
178 304 65 84 87 100 119 130 118 109 113 122 127 127 118 115 118 135 149 142 130 139 144 154 169 164 162 173 174 177 183 179 177 183 180 176 183 184 185 188 177 160 162 170 166 156 163 187 174 170 190 198 191 200 205 203 207 212 216 207 196 193 187 184 188 187 174 157 163 173 175 188 205 204 203 214 218 218 219 217 231 247 257 277 296 325 343 0
86 37 77 98 101 106 118 118 109 112 136 122 112 119 124 129 126 127 142 150 140 138 143 144 141 135 143 165 175 176 179 178 180 186 186 182 184 183 183 182 173 160 156 165 163 158 163 163 167 189 202 187 186 203 198 205 220 214 200 191 184 186 186 182 194 199 190 175 179 195 197 203 210 205 200 209 218 226 227 224 232 242 250 264 280 293 302 321
Height
3140 3140 3139 3138 3138 3138 3137 3137 3137 3137 3136 3136 3136 3136 3136 3136 3136 3136 3136 3136 3136 3136 3137 3137 3137 3137 3137 3138 3139 3140 3141 3142 3143 3143 3144 3145 3146 3146 3147 3149 3150 3150 3151 3153 3155 3157 3158 3160 3162 3163 3164 3165 3166 3166 3167 3167 3167 3167 3166 3165 3165 3166 3165 3164 3164 3165 3165 3165 3166 3167 3170 3172 3173 3175 3177 3178 3180 3182 3183 3185 3186 3188 3189 3190 3191 3193 3195 3197
3139 3138 3138 3137 3137 3136 3136 3136 3136 3135 3135 3135 3135 3135 3135 3135 3135 3135 3135 3135 3135 3135 3135 3136 3136 3136 3136 3137 3138 3139 3139 3140 3141 3142 3143 3143 3145 3146 3147 3149 3149 3150 3151 3153 3155 3157 3158 3160 3162 3163 3164 3165 3166 3166 3167 3168 3167 3167 3166 3165 3166 3167 3167 3165 3165 3165 3166 3166 3166 3168 3171 3173 3174 3175 3177 3180 3181 3182 3184 3185 3187 3188 3189 3190 3192 3193 3195 3197
3137 3137 3136 3136 3135 3135 3134 3134 3134 3134 3134 3133 3133 3133 3133 3133 3133 3133 3133 3134 3134 3134 3134 3134 3135 3135 3135 3136 3136 3137 3138 3139 3140 3141 3141 3142 3144 3145 3146 3148 3149 3149 3151 3152 3154 3156 3157 3159 3161 3163 3164 3165 3166 3167 3167 3168 3168 3168 3167 3166 3167 3168 3168 3166 3165 3166 3166 3167 3167 3169 3171 3173 3175 3177 3178 3180 3182 3183 3185 3186 3187 3188 3190 3191 3192 3194 3196 3198
3136 3135 3135 3134 3134 3133 3133 3133 3133 3132 3132 3132 3132 3132 3132 3132 3132 3132 3132 3132 3133 3132 3133 3133 3133 3134 3134 3135 3135 3136 3137 3138 3138 3139 3140 3141 3143 3144 3146 3147 3148 3149 3150 3151 3153 3154 3156 3158 3160 3162 3164 3165 3166 3166 3168 3168 3168 3169 3167 3167 3168 3168 3168 3168 3167 3167 3167 3168 3169 3170 3172 3173 3175 3177 3179 3181 3183 3184 3185 3186 3188 3189 3191 3192 3193 3194 3196 3198
3135 3134 3133 3133 3132 3132 3132 3131 3131 3131 3131 3130 3130 3130 3130 3130 3130 3130 3131 3131 3131 3131 3131 3132 3132 3132 3133 3134 3135 3135 3137 3138 3137 3137 3139 3140 3142 3144 3145 3146 3147 3148 3149 3151 3152 3154 3156 3157 3159 3161 3163 3166 3166 3166 3167 3168 3168 3169 3168 3168 3169 3168 3169 3169 3168 3168 3168 3168 3170 3171 3173 3174 3176 3178 3180 3181 3183 3185 3185 3187 3188 3190 3192 3193 3194 3195 3197 3198
3134 3133 3132 3131 3131 3130 3130 3130 3130 3129 3129 3129 3129 3129 3129 3129 3129 3129 3129 3130 3130 3130 3130 3130 3131 3131 3132 3133 3134 3134 3136 3137 3135 3136 3138 3139 3141 3142 3144 3145 3146 3147 3149 3150 3152 3153 3155 3157 3159 3160 3163 3165 3166 3166 3168 3168 3168 3169 3170 3169 3169 3169 3169 3169 3169 3169 3169 3169 3170 3172 3174 3175 3176 3178 3180 3181 3183 3184 3185 3187 3188 3190 3192 3194 3195 3196 3198 3199
3134 3133 3132 3130 3129 3129 3129 3128 3128 3128 3128 3128 3127 3127 3127 3127 3127 3127 3128 3128 3129 3129 3129 3129 3130 3130 3131 3132 3133 3134 3134 3134 3134 3135 3136 3137 3139 3141 3143 3144 3145 3147 3148 3150 3151 3153 3155 3157 3159 3160 3162 3165 3166 3167 3168 3168 3168 3169 3171 3170 3170 3170 3170 3170 3170 3170 3169 3170 3171 3172 3174 3176 3177 3179 3180 3181 3182 3183 3185 3187 3189 3190 3192 3194 3195 3197 3198 3200
3132 3132 3131 3130 3129 3128 3127 3127 3127 3127 3127 3126 3126 3125 3125 3125 3126 3126 3126 3126 3127 3127 3128 3128 3128 3129 3130 3130 3132 3133 3133 3133 3134 3134 3135 3136 3138 3139 3141 3143 3145 3146 3148 3150 3151 3153 3155 3157 3159 3161 3163 3165 3166 3167 3167 3168 3169 3169 3171 3171 3171 3171 3171 3171 3171 3170 3170 3170 3171 3172 3174 3176 3177 3179 3180 3181 3183 3184 3185 3187 3189 3191 3193 3194 3195 3197 3199 3200
3131 3130 3129 3129 3128 3127 3126 3125 3125 3125 3125 3125 3124 3124 3123 3124 3124 3124 3124 3125 3125 3126 3126 3127 3127 3128 3129 3129 3130 3132 3132 3132 3133 3133 3134 3135 3137 3138 3140 3142 3144 3146 3148 3149 3151 3153 3155 3157 3159 3161 3164 3165 3165 3166 3167 3169 3170 3169 3170 3171 3171 3172 3172 3172 3171 3171 3171 3171 3172 3173 3174 3176 3177 3178 3179 3181 3183 3184 3186 3188 3189 3191 3193 3194 3195 3197 3199 3201
3130 3129 3128 3127 3127 3126 3125 3124 3124 3124 3124 3123 3123 3122 3122 3122 3122 3122 3123 3123 3123 3124 3125 3125 3126 3126 3127 3128 3129 3131 3131 3131 3132 3132 3133 3134 3136 3138 3139 3141 3144 3146 3147 3149 3150 3152 3154 3156 3158 3160 3162 3164 3165 3166 3167 3168 3169 3169 3169 3170 3171 3172 3172 3171 3172 3172 3172 3171 3172 3173 3174 3175 3176 3177 3178 3181 3183 3185 3186 3188 3190 3192 3193 3194 3195 3197 3199 3201
3129 3128 3127 3126 3125 3125 3124 3123 3122 3122 3122 3121 3121 3120 3120 3120 3120 3121 3121 3121 3122 3122 3123 3124 3124 3125 3126 3127 3128 3129 3129 3130 3131 3131 3132 3133 3135 3137 3138 3141 3143 3145 3147 3149 3150 3152 3154 3156 3157 3160 3162 3163 3164 3166 3166 3166 3167 3168 3170 3171 3171 3171 3172 3172 3172 3172 3172 3172 3173 3174 3175 3175 3176 3177 3179 3181 3183 3185 3186 3188 3190 3191 3193 3194 3196 3197 3199 3201
3129 3128 3126 3125 3124 3123 3123 3122 3121 3120 3120 3120 3119 3119 3118 3118 3119 3119 3119 3119 3120 3121 3122 3122 3123 3124 3125 3126 3126 3126 3127 3129 3130 3131 3132 3133 3134 3136 3137 3139 3141 3144 3146 3148 3150 3151 3153 3155 3157 3159 3161 3162 3165 3166 3165 3166 3167 3168 3170 3171 3172 3172 3172 3172 3172 3172 3172 3173 3173 3173 3175 3175 3175 3177 3179 3181 3183 3185 3186 3188 3189 3191 3193 3194 3195 3197 3199 3200
3128 3127 3126 3125 3124 3122 3121 3120 3120 3119 3118 3118 3117 3117 3117 3117 3117 3117 3117 3118 3118 3119 3120 3121 3121 3122 3124 3124 3124 3125 3126 3128 3129 3130 3131 3132 3133 3135 3136 3138 3140 3142 3144 3146 3148 3150 3152 3154 3156 3158 3159 3162 3165 3164 3164 3166 3167 3169 3170 3171 3172 3172 3172 3172 3172 3172 3173 3173 3172 3172 3174 3175 3175 3176 3179 3181 3183 3184 3186 3187 3189 3191 3192 3194 3195 3197 3199 3200
3127 3126 3125 3124 3123 3121 3120 3119 3118 3117 3117 3116 3116 3115 3115 3115 3115 3115 3116 3116 3117 3118 3119 3119 3120 3121 3122 3123 3123 3124 3125 3126 3128 3129 3131 3132 3133 3134 3136 3137 3139 3140 3142 3144 3146 3148 3150 3153 3154 3156 3158 3160 3162 3162 3164 3166 3168 3170 3171 3171 3172 3172 3171 3172 3172 3172 3173 3173 3172 3172 3174 3175 3176 3177 3178 3180 3182 3184 3186 3187 3189 3190 3192 3193 3195 3197 3199 3200
3125 3124 3124 3123 3121 3120 3119 3118 3117 3116 3115 3115 3114 3114 3113 3113 3114 3114 3114 3115 3115 3116 3117 3118 3119 3120 3121 3122 3122 3123 3124 3126 3127 3128 3130 3131 3132 3134 3135 3137 3138 3140 3141 3143 3145 3147 3149 3152 3154 3156 3158 3158 3160 3162 3165 3167 3168 3170 3170 3170 3171 3170 3171 3171 3171 3171 3172 3172 3172 3173 3174 3176 3177 3178 3179 3180 3182 3184 3186 3187 3189 3190 3192 3193 3195 3197 3199 3200
3124 3123 3122 3121 3120 3119 3118 3117 3116 3115 3114 3113 3113 3112 3112 3112 3112 3112 3113 3113 3114 3115 3116 3117 3118 3119 3121 3121 3121 3122 3123 3124 3125 3127 3128 3130 3131 3132 3134 3136 3137 3139 3141 3143 3145 3146 3148 3151 3153 3156 3158 3159 3161 3164 3166 3167 3167 3168 3169 3169 3170 3170 3170 3171 3170 3170 3171 3171 3172 3174 3175 3176 3177 3178 3179 3180 3181 3183 3185 3187 3188 3190 3191 3193 3195 3197 3198 3200
3123 3121 3120 3119 3118 3117 3116 3116 3114 3113 3112 3112 3111 3111 3110 3110 3110 3111 3111 3112 3113 3113 3114 3115 3117 3118 3119 3119 3120 3121 3122 3123 3125 3126 3127 3129 3130 3132 3133 3135 3137 3139 3141 3143 3145 3146 3148 3150 3152 3154 3156 3159 3162 3163 3164 3165 3165 3167 3168 3168 3169 3170 3169 3168 3169 3169 3171 3172 3173 3174 3175 3176 3177 3177 3179 3179 3181 3183 3184 3186 3188 3189 3191 3193 3194 3196 3198 3199
3121 3119 3118 3116 3115 3115 3114 3114 3113 3112 3111 3110 3110 3109 3109 3109 3109 3109 3110 3111 3111 3112 3114 3115 3116 3118 3118 3118 3120 3120 3121 3123 3124 3125 3126 3128 3130 3132 3132 3134 3136 3139 3141 3143 3145 3146 3148 3150 3152 3155 3157 3158 3160 3161 3162 3162 3164 3166 3167 3167 3168 3169 3169 3168 3168 3169 3170 3172 3174 3174 3174 3175 3176 3177 3178 3179 3180 3182 3184 3186 3187 3188 3190 3192 3194 3196 3198 3199
3119 3118 3116 3114 3113 3112 3112 3112 3111 3110 3109 3109 3108 3108 3108 3108 3107 3108 3108 3109 3110 3111 3113 3114 3115 3117 3118 3117 3118 3119 3121 3123 3124 3125 3126 3127 3129 3131 3132 3134 3136 3139 3141 3143 3144 3146 3148 3150 3152 3155 3156 3157 3158 3160 3162 3163 3164 3165 3166 3167 3167 3168 3169 3169 3169 3169 3171 3172 3174 3174 3174 3174 3175 3177 3178 3179 3180 3182 3184 3185 3186 3188 3189 3191 3193 3195 3197 3199
3117 3115 3114 3112 3111 3109 3109 3109 3108 3108 3108 3107 3107 3107 3107 3107 3107 3107 3107 3108 3109 3109 3110 3112 3113 3115 3116 3116 3117 3119 3121 3122 3124 3125 3126 3127 3129 3131 3133 3134 3136 3139 3141 3143 3144 3145 3148 3150 3151 3153 3155 3157 3158 3160 3162 3162 3162 3164 3166 3167 3167 3168 3169 3170 3170 3170 3171 3173 3174 3174 3174 3175 3176 3177 3178 3179 3180 3181 3183 3184 3185 3187 3188 3190 3192 3194 3196 3198
3115 3113 3112 3110 3109 3107 3107 3106 3106 3106 3106 3106 3105 3106 3106 3106 3107 3106 3106 3107 3107 3108 3109 3110 3112 3113 3114 3115 3117 3119 3121 3123 3124 3125 3126 3127 3128 3131 3133 3134 3136 3138 3141 3144 3145 3145 3148 3150 3151 3153 3155 3156 3157 3158 3160 3161 3162 3164 3166 3166 3167 3168 3169 3170 3170 3170 3171 3173 3174 3174 3175 3176 3176 3177 3177 3178 3179 3181 3183 3184 3185 3187 3188 3190 3192 3193 3195 3198
3113 3111 3110 3109 3107 3106 3105 3104 3104 3104 3104 3104 3104 3104 3104 3104 3105 3105 3105 3106 3106 3107 3108 3109 3111 3113 3113 3115 3117 3118 3120 3123 3124 3125 3126 3127 3128 3131 3132 3134 3137 3139 3141 3143 3144 3145 3147 3149 3151 3153 3154 3155 3156 3157 3158 3161 3163 3164 3165 3166 3166 3167 3169 3170 3170 3171 3172 3173 3174 3174 3175 3176 3175 3177 3178 3178 3179 3180 3182 3184 3185 3187 3188 3190 3191 3193 3195 3196
3111 3110 3108 3107 3105 3104 3103 3102 3101 3102 3102 3102 3102 3102 3102 3102 3103 3103 3104 3105 3106 3106 3107 3109 3111 3112 3114 3116 3117 3119 3121 3123 3124 3124 3126 3127 3129 3131 3132 3134 3137 3140 3141 3142 3144 3145 3147 3149 3150 3151 3152 3153 3155 3156 3158 3160 3162 3163 3164 3165 3165 3166 3168 3169 3170 3171 3171 3172 3174 3174 3174 3175 3175 3176 3177 3177 3178 3179 3181 3183 3184 3186 3188 3189 3191 3193 3194 3195
3110 3108 3106 3105 3103 3102 3101 3100 3100 3100 3100 3100 3100 3100 3101 3101 3101 3102 3103 3104 3105 3105 3107 3108 3110 3112 3114 3115 3117 3119 3122 3124 3124 3124 3125 3128 3130 3130 3132 3134 3137 3139 3140 3142 3144 3146 3147 3148 3149 3149 3151 3153 3155 3156 3158 3160 3161 3162 3164 3164 3164 3166 3167 3168 3169 3170 3171 3171 3172 3173 3173 3174 3174 3176 3176 3177 3178 3178 3179 3181 3183 3184 3187 3188 3190 3192 3193 3195
3108 3106 3105 3103 3101 3100 3099 3099 3099 3099 3099 3099 3099 3099 3100 3100 3100 3101 3102 3104 3105 3105 3106 3108 3110 3112 3113 3115 3117 3119 3121 3122 3123 3124 3125 3127 3130 3131 3132 3134 3136 3139 3140 3142 3145 3146 3147 3147 3147 3149 3151 3153 3155 3156 3157 3159 3161 3162 3162 3163 3164 3166 3168 3168 3169 3170 3170 3170 3171 3171 3171 3172 3174 3176 3176 3176 3177 3178 3179 3180 3182 3183 3185 3187 3189 3190 3192 3194
3107 3105 3103 3101 3100 3099 3098 3098 3098 3098 3098 3098 3098 3098 3099 3099 3100 3101 3102 3103 3105 3105 3107 3109 3111 3113 3114 3115 3117 3118 3121 3122 3122 3123 3124 3126 3128 3130 3132 3133 3135 3138 3139 3141 3145 3146 3146 3145 3147 3149 3151 3153 3155 3156 3157 3158 3160 3161 3161 3162 3164 3165 3167 3168 3169 3169 3168 3168 3169 3170 3170 3171 3175 3177 3176 3176 3177 3178 3179 3180 3181 3182 3184 3186 3188 3190 3191 3193
3106 3104 3102 3100 3099 3098 3097 3097 3097 3097 3097 3097 3098 3098 3098 3099 3100 3101 3102 3102 3103 3105 3107 3109 3111 3112 3113 3115 3117 3119 3120 3120 3121 3123 3124 3125 3127 3129 3131 3133 3134 3136 3138 3141 3144 3144 3144 3145 3147 3149 3150 3152 3154 3155 3156 3157 3160 3161 3159 3161 3163 3165 3166 3167 3169 3169 3168 3168 3169 3169 3170 3170 3173 3176 3176 3176 3176 3178 3179 3180 3180 3181 3183 3184 3186 3188 3190 3192
3105 3103 3102 3100 3099 3098 3097 3096 3096 3096 3096 3096 3097 3097 3098 3099 3099 3101 3101 3100 3101 3105 3107 3108 3110 3111 3113 3115 3117 3118 3119 3120 3122 3123 3123 3125 3127 3129 3131 3133 3134 3135 3137 3140 3142 3142 3144 3145 3146 3148 3150 3152 3153 3154 3155 3156 3158 3159 3158 3160 3162 3164 3165 3167 3168 3168 3168 3169 3167 3168 3169 3168 3172 3176 3176 3177 3177 3178 3179 3180 3180 3180 3181 3183 3185 3186 3189 3191
3105 3103 3102 3101 3099 3098 3097 3096 3096 3096 3096 3096 3096 3097 3098 3099 3100 3101 3100 3099 3102 3105 3107 3109 3111 3111 3113 3115 3117 3118 3118 3120 3121 3122 3123 3126 3127 3129 3131 3132 3133 3135 3136 3139 3141 3141 3142 3144 3145 3148 3149 3150 3151 3153 3153 3155 3157 3158 3157 3159 3161 3163 3165 3166 3167 3167 3168 3168 3165 3165 3167 3167 3171 3176 3176 3177 3177 3178 3179 3180 3180 3180 3180 3182 3184 3185 3187 3189
3105 3104 3102 3101 3100 3098 3098 3097 3096 3096 3096 3096 3096 3097 3098 3099 3101 3100 3099 3100 3103 3105 3106 3109 3111 3112 3114 3116 3117 3118 3119 3120 3121 3122 3124 3126 3127 3128 3130 3131 3133 3135 3136 3139 3140 3140 3140 3142 3144 3146 3147 3148 3149 3150 3151 3154 3156 3157 3157 3160 3161 3163 3165 3166 3167 3167 3167 3165 3163 3164 3165 3165 3170 3175 3175 3176 3176 3177 3178 3178 3178 3178 3179 3181 3182 3183 3185 3186
3105 3104 3103 3102 3100 3099 3098 3098 3097 3096 3096 3096 3097 3098 3099 3100 3101 3099 3098 3101 3104 3105 3107 3109 3110 3112 3114 3116 3116 3118 3119 3120 3122 3124 3125 3126 3128 3129 3130 3131 3132 3135 3137 3138 3139 3140 3141 3143 3143 3144 3145 3147 3149 3150 3151 3152 3154 3156 3158 3159 3160 3162 3164 3165 3166 3167 3165 3161 3160 3163 3165 3164 3168 3173 3175 3175 3175 3175 3175 3175 3175 3176 3177 3178 3180 3181 3183 3185
3106 3105 3104 3102 3101 3100 3099 3098 3098 3097 3097 3097 3098 3099 3100 3100 3101 3099 3100 3103 3104 3106 3108 3109 3110 3113 3114 3116 3117 3118 3119 3120 3122 3124 3125 3127 3127 3128 3129 3129 3131 3132 3135 3136 3138 3140 3141 3142 3142 3143 3145 3146 3148 3150 3151 3152 3154 3155 3157 3158 3158 3159 3161 3162 3162 3163 3161 3158 3159 3162 3164 3165 3169 3173 3175 3176 3175 3174 3174 3173 3173 3174 3175 3177 3178 3180 3182 3184
3106 3106 3104 3103 3102 3101 3100 3100 3099 3099 3099 3099 3099 3100 3101 3100 3101 3102 3103 3103 3103 3105 3107 3109 3111 3113 3115 3116 3116 3118 3119 3120 3122 3123 3125 3126 3127 3128 3128 3129 3129 3130 3132 3134 3136 3138 3141 3142 3143 3143 3145 3146 3147 3148 3150 3151 3152 3153 3154 3155 3154 3154 3156 3158 3157 3158 3157 3157 3160 3162 3162 3165 3170 3173 3175 3175 3174 3173 3173 3172 3171 3173 3174 3175 3177 3179 3181 3183
3107 3106 3105 3104 3103 3102 3101 3101 3101 3100 3101 3101 3101 3102 3101 3101 3102 3104 3104 3104 3104 3106 3108 3110 3112 3114 3115 3116 3116 3118 3119 3121 3122 3124 3125 3127 3128 3128 3129 3130 3129 3129 3131 3133 3135 3136 3138 3140 3141 3142 3143 3144 3145 3145 3146 3147 3150 3152 3153 3153 3152 3151 3152 3152 3152 3153 3153 3154 3159 3161 3161 3163 3168 3172 3174 3175 3173 3172 3172 3171 3170 3171 3172 3174 3175 3177 3179 3181
3108 3107 3106 3105 3104 3103 3103 3103 3102 3102 3102 3102 3103 3103 3103 3103 3104 3105 3105 3105 3106 3108 3109 3111 3113 3114 3115 3116 3117 3118 3119 3121 3122 3124 3125 3126 3127 3127 3128 3129 3129 3130 3131 3132 3133 3135 3136 3137 3139 3140 3141 3142 3144 3144 3145 3147 3149 3150 3152 3153 3152 3150 3150 3149 3148 3150 3151 3152 3156 3159 3161 3163 3166 3171 3174 3174 3174 3172 3171 3171 3170 3171 3172 3172 3174 3175 3177 3179
3108 3108 3107 3106 3105 3105 3105 3104 3104 3103 3103 3104 3105 3105 3105 3105 3105 3105 3105 3105 3106 3109 3110 3112 3114 3115 3116 3117 3118 3119 3119 3120 3122 3124 3125 3125 3126 3126 3128 3129 3129 3131 3132 3131 3133 3135 3135 3137 3139 3140 3142 3142 3143 3144 3145 3147 3148 3149 3151 3151 3149 3149 3151 3151 3150 3151 3151 3150 3152 3156 3161 3164 3167 3171 3174 3174 3174 3172 3170 3171 3171 3170 3171 3172 3173 3174 3175 3177
3109 3108 3108 3107 3107 3106 3106 3105 3105 3105 3105 3105 3106 3106 3106 3106 3105 3105 3105 3106 3107 3109 3110 3112 3113 3114 3115 3117 3119 3120 3120 3121 3123 3124 3125 3126 3126 3127 3127 3129 3130 3131 3132 3132 3134 3134 3135 3137 3139 3141 3142 3142 3143 3144 3145 3146 3147 3148 3149 3148 3148 3150 3152 3152 3150 3150 3150 3148 3150 3154 3159 3163 3166 3168 3172 3173 3172 3171 3170 3170 3170 3170 3171 3171 3172 3173 3174 3175
3110 3109 3109 3108 3108 3107 3106 3106 3106 3106 3106 3107 3106 3106 3107 3107 3107 3106 3107 3107 3108 3109 3111 3112 3113 3114 3115 3117 3119 3120 3121 3122 3123 3124 3125 3126 3127 3128 3127 3128 3130 3131 3132 3133 3134 3135 3135 3137 3139 3141 3141 3142 3143 3145 3146 3146 3146 3147 3147 3147 3149 3150 3151 3152 3150 3148 3148 3146 3147 3153 3157 3162 3165 3166 3169 3171 3170 3169 3169 3169 3169 3170 3170 3171 3171 3172 3172 3173
3110 3110 3110 3109 3108 3107 3106 3106 3106 3107 3108 3108 3108 3107 3108 3108 3108 3108 3108 3109 3109 3110 3111 3112 3113 3114 3116 3117 3118 3120 3121 3122 3123 3124 3125 3126 3127 3128 3128 3129 3130 3131 3132 3133 3134 3135 3136 3136 3138 3140 3141 3142 3144 3145 3145 3146 3146 3147 3147 3148 3150 3149 3148 3150 3148 3146 3146 3142 3145 3153 3157 3160 3165 3166 3167 3168 3167 3168 3169 3168 3168 3169 3169 3170 3171 3171 3171 3172
3110 3111 3111 3109 3108 3108 3107 3106 3107 3108 3109 3109 3108 3108 3108 3108 3109 3109 3109 3110 3110 3111 3112 3112 3114 3115 3116 3117 3119 3120 3120 3122 3123 3124 3125 3126 3128 3129 3129 3129 3130 3131 3132 3133 3133 3135 3137 3136 3137 3139 3141 3142 3143 3143 3143 3144 3145 3147 3148 3148 3149 3149 3148 3149 3148 3147 3145 3140 3141 3149 3153 3158 3165 3166 3166 3166 3166 3167 3168 3168 3167 3167 3168 3169 3170 3170 3171 3171
3111 3112 3111 3109 3109 3108 3107 3108 3109 3109 3109 3109 3109 3109 3109 3109 3109 3109 3110 3110 3111 3111 3112 3113 3114 3115 3116 3118 3119 3120 3121 3122 3124 3125 3125 3126 3128 3129 3129 3130 3130 3131 3132 3134 3134 3135 3137 3137 3137 3139 3141 3142 3142 3141 3142 3143 3144 3145 3147 3147 3148 3149 3149 3148 3146 3147 3148 3144 3141 3143 3149 3159 3165 3165 3164 3164 3164 3165 3166 3167 3166 3166 3167 3168 3169 3169 3170 3171
3111 3112 3111 3110 3109 3108 3109 3110 3109 3109 3109 3109 3109 3109 3109 3110 3110 3110 3111 3111 3111 3112 3112 3113 3114 3115 3117 3118 3119 3120 3121 3123 3124 3125 3126 3126 3127 3128 3129 3130 3131 3131 3133 3134 3135 3135 3136 3138 3138 3139 3140 3141 3140 3141 3142 3142 3143 3144 3145 3146 3147 3148 3149 3148 3145 3146 3147 3147 3146 3145 3151 3161 3165 3163 3163 3163 3163 3164 3165 3165 3165 3165 3166 3167 3168 3168 3169 3169
3111 3112 3110 3110 3109 3109 3110 3111 3110 3110 3110 3109 3109 3109 3110 3110 3111 3111 3111 3112 3112 3112 3113 3114 3115 3116 3117 3118 3119 3120 3121 3122 3124 3125 3125 3126 3127 3128 3129 3130 3131 3131 3133 3134 3135 3135 3136 3138 3139 3140 3141 3141 3141 3142 3142 3142 3143 3145 3145 3145 3146 3147 3148 3147 3146 3147 3146 3147 3148 3146 3150 3161 3164 3162 3163 3163 3163 3164 3164 3164 3164 3164 3165 3166 3167 3168 3168 3168
3111 3111 3110 3110 3109 3109 3111 3112 3111 3111 3110 3110 3110 3110 3110 3111 3111 3111 3112 3112 3113 3113 3114 3114 3115 3116 3117 3118 3119 3120 3121 3123 3124 3125 3126 3126 3127 3128 3129 3130 3131 3132 3133 3134 3135 3135 3137 3137 3138 3139 3140 3141 3142 3142 3142 3143 3144 3145 3144 3144 3145 3145 3146 3147 3148 3149 3147 3147 3148 3145 3148 3159 3163 3162 3162 3163 3163 3163 3163 3163 3164 3164 3165 3165 3166 3167 3167 3167
3111 3111 3110 3110 3109 3109 3110 3111 3111 3111 3111 3111 3111 3111 3111 3111 3111 3112 3112 3113 3113 3114 3114 3115 3115 3116 3117 3118 3119 3120 3121 3122 3123 3125 3126 3127 3127 3128 3129 3130 3131 3132 3132 3133 3134 3135 3136 3137 3137 3137 3136 3137 3138 3139 3140 3142 3143 3144 3144 3144 3144 3145 3146 3147 3148 3149 3148 3149 3150 3148 3150 3157 3161 3161 3162 3163 3163 3163 3163 3163 3163 3164 3164 3164 3165 3166 3166 3166
3111 3112 3111 3110 3110 3110 3110 3110 3111 3112 3111 3111 3111 3111 3112 3111 3111 3112 3112 3113 3113 3114 3115 3115 3116 3117 3118 3119 3120 3121 3121 3122 3123 3125 3126 3127 3128 3129 3129 3130 3131 3132 3132 3133 3134 3135 3136 3137 3137 3137 3136 3136 3137 3137 3139 3141 3143 3144 3144 3144 3145 3145 3146 3147 3148 3147 3147 3149 3151 3152 3153 3157 3160 3161 3161 3162 3162 3162 3162 3162 3162 3163 3164 3164 3164 3164 3165 3166
3111 3111 3111 3111 3110 3111 3111 3110 3111 3111 3111 3111 3111 3111 3112 3112 3112 3112 3112 3113 3113 3114 3115 3116 3116 3118 3119 3120 3120 3121 3122 3122 3123 3125 3126 3127 3128 3129 3129 3130 3131 3131 3132 3133 3134 3135 3136 3137 3136 3137 3137 3137 3138 3138 3140 3142 3143 3143 3144 3144 3144 3145 3146 3147 3147 3147 3147 3149 3150 3152 3155 3157 3159 3160 3160 3160 3161 3161 3161 3161 3162 3162 3163 3163 3164 3164 3164 3165
3110 3110 3110 3110 3111 3111 3111 3111 3111 3111 3111 3111 3111 3111 3112 3112 3112 3112 3112 3113 3113 3114 3115 3116 3116 3117 3118 3119 3120 3121 3122 3123 3124 3125 3126 3127 3128 3129 3129 3130 3130 3131 3132 3132 3133 3134 3136 3136 3136 3136 3137 3137 3137 3138 3139 3141 3141 3142 3143 3143 3144 3145 3146 3147 3147 3147 3148 3149 3149 3151 3154 3157 3159 3159 3159 3158 3159 3159 3160 3160 3161 3161 3162 3163 3163 3164 3164 3165
3110 3110 3110 3110 3110 3110 3110 3110 3111 3111 3111 3111 3111 3112 3112 3112 3112 3112 3113 3113 3114 3114 3115 3116 3116 3117 3118 3119 3120 3121 3122 3123 3124 3124 3125 3126 3127 3129 3130 3130 3130 3130 3131 3131 3132 3133 3135 3135 3135 3136 3137 3137 3137 3138 3139 3140 3141 3142 3142 3142 3143 3145 3146 3146 3147 3147 3148 3149 3149 3151 3153 3155 3156 3157 3157 3157 3157 3158 3159 3159 3160 3160 3161 3162 3163 3163 3164 3164
3110 3110 3110 3110 3110 3109 3110 3110 3111 3111 3111 3111 3112 3112 3112 3112 3112 3112 3112 3113 3114 3114 3115 3116 3116 3117 3118 3118 3119 3120 3121 3122 3123 3124 3125 3126 3127 3128 3129 3130 3130 3130 3130 3131 3131 3132 3134 3135 3134 3136 3137 3137 3137 3138 3139 3139 3140 3141 3142 3142 3143 3144 3145 3146 3146 3147 3148 3149 3150 3151 3152 3153 3153 3154 3155 3156 3157 3158 3158 3159 3159 3159 3160 3160 3161 3162 3163 3163
3110 3110 3110 3110 3110 3110 3110 3110 3111 3111 3112 3112 3112 3112 3112 3112 3112 3112 3113 3113 3114 3114 3115 3115 3116 3116 3117 3118 3119 3120 3120 3121 3122 3123 3124 3125 3126 3127 3128 3128 3129 3130 3130 3130 3131 3132 3133 3134 3134 3136 3137 3137 3137 3138 3139 3139 3140 3141 3141 3141 3142 3144 3145 3145 3146 3146 3148 3149 3150 3151 3152 3152 3151 3152 3154 3155 3156 3156 3157 3157 3158 3158 3158 3159 3160 3161 3161 3162
3110 3110 3110 3110 3111 3111 3111 3111 3111 3112 3113 3112 3111 3111 3111 3112 3112 3112 3113 3113 3113 3114 3114 3115 3116 3117 3117 3117 3118 3118 3119 3120 3121 3122 3123 3124 3125 3126 3126 3127 3128 3129 3130 3130 3131 3132 3133 3134 3135 3136 3136 3136 3137 3137 3138 3139 3140 3139 3139 3139 3141 3142 3143 3143 3144 3144 3145 3148 3149 3151 3151 3150 3149 3151 3154 3155 3155 3155 3155 3156 3157 3157 3157 3158 3158 3159 3160 3160